When you browse on this site, cookies collect data to enhance your experience and personalize the content and advertising you see.
Visit our Privacy Policy to learn more. By continuing to use the site, you agree to this use of cookies and data.
  • Em Portugal
  • Lista de países
  • Para 7 dias
  • Temperatura da água
  • Mapas de satélite
  • Mapa do tempo
  • Widgets de tempo
  • user-avatar
    Iniciar Sessão

    Previsão horária em Kornele

    Hoje, 17 Julho, Quarta-feira

    Tempo Temperatura Precipitação Vento Pressão Humidade
    00:00 +12°C° 0.3 mm 3 m/s 747 mmHg 90%
    01:00 +12°C° 0.3 mm 4 m/s 747 mmHg 93%
    02:00 +12°C° 0.2 mm 4 m/s 746 mmHg 94%
    03:00 +11°C° 0.2 mm 3 m/s 746 mmHg 94%
    04:00 +11°C° 0.2 mm 3 m/s 746 mmHg 95%
    05:00 +12°C° 0.1 mm 4 m/s 746 mmHg 93%
    06:00 +13°C° 0.1 mm 5 m/s 746 mmHg 91%
    07:00 +14°C° 0.1 mm 5 m/s 746 mmHg 89%
    08:00 +15°C° 0.3 mm 6 m/s 747 mmHg 84%
    09:00 +16°C° 0.3 mm 6 m/s 747 mmHg 80%
    10:00 +17°C° 0.3 mm 6 m/s 748 mmHg 75%
    11:00 +17°C° 0.1 mm 6 m/s 748 mmHg 71%
    12:00 +19°C° 0.1 mm 6 m/s 748 mmHg 67%
    13:00 +19°C° 0.1 mm 6 m/s 748 mmHg 63%
    14:00 +19°C° 0 mm 6 m/s 748 mmHg 65%
    15:00 +17°C° 0 mm 6 m/s 748 mmHg 66%
    16:00 +17°C° 0 mm 5 m/s 748 mmHg 67%
    17:00 +16°C° 0 mm 5 m/s 748 mmHg 72%
    18:00 +15°C° 0 mm 4 m/s 749 mmHg 77%
    19:00 +13°C° 0 mm 3 m/s 749 mmHg 82%
    20:00 +12°C° 0 mm 3 m/s 749 mmHg 86%
    21:00 +12°C° 0 mm 2 m/s 749 mmHg 90%
    22:00 +10°C° 0 mm 2 m/s 749 mmHg 94%
    23:00 +10°C° 0 mm 2 m/s 749 mmHg 94%

    Amanhã, 18 Julho, Quinta-feira

    Tempo Temperatura Precipitação Vento Pressão Humidade
    00:00 +10°C° 0 mm 2 m/s 749 mmHg 95%
    01:00 +10°C° 0 mm 2 m/s 749 mmHg 96%
    02:00 +10°C° 0 mm 2 m/s 749 mmHg 96%
    03:00 +10°C° 0 mm 2 m/s 749 mmHg 97%
    04:00 +10°C° 0 mm 2 m/s 749 mmHg 97%
    05:00 +12°C° 0 mm 2 m/s 749 mmHg 93%
    06:00 +14°C° 0 mm 2 m/s 750 mmHg 88%
    07:00 +16°C° 0 mm 2 m/s 750 mmHg 84%
    08:00 +17°C° 0 mm 2 m/s 750 mmHg 78%
    09:00 +18°C° 0 mm 2 m/s 750 mmHg 72%
    10:00 +20°C° 0 mm 2 m/s 750 mmHg 66%
    11:00 +20°C° 0 mm 2 m/s 750 mmHg 64%
    12:00 +21°C° 0 mm 2 m/s 750 mmHg 62%
    13:00 +21°C° 0 mm 2 m/s 750 mmHg 60%
    14:00 +21°C° 0 mm 2 m/s 750 mmHg 61%
    15:00 +21°C° 0 mm 3 m/s 750 mmHg 62%
    16:00 +21°C° 0 mm 3 m/s 749 mmHg 63%
    17:00 +20°C° 0 mm 2 m/s 750 mmHg 69%
    18:00 +18°C° 0 mm 2 m/s 750 mmHg 75%
    19:00 +17°C° 0 mm 2 m/s 750 mmHg 81%
    20:00 +16°C° 0 mm 2 m/s 750 mmHg 84%
    21:00 +14°C° 0 mm 1 m/s 750 mmHg 87%
    22:00 +13°C° 0 mm 1 m/s 750 mmHg 89%
    23:00 +12°C° 0 mm 1 m/s 750 mmHg 88%

    Depois de amanhã, 19 Julho, Sexta-feira

    Tempo Temperatura Precipitação Vento Pressão Humidade
    00:00 +12°C° 0 mm 1 m/s 750 mmHg 88%
    01:00 +11°C° 0 mm 0 m/s 750 mmHg 87%
    02:00 +11°C° 0 mm 0 m/s 750 mmHg 87%
    03:00 +12°C° 0 mm 1 m/s 750 mmHg 87%
    04:00 +12°C° 0 mm 1 m/s 750 mmHg 86%
    05:00 +14°C° 0 mm 1 m/s 751 mmHg 82%
    06:00 +16°C° 0 mm 1 m/s 751 mmHg 77%
    07:00 +19°C° 0 mm 1 m/s 751 mmHg 72%
    08:00 +20°C° 0 mm 1 m/s 751 mmHg 68%
    09:00 +22°C° 0 mm 1 m/s 751 mmHg 64%
    10:00 +23°C° 0 mm 1 m/s 751 mmHg 60%
    11:00 +24°C° 0.1 mm 1 m/s 751 mmHg 57%
    12:00 +24°C° 0.1 mm 2 m/s 751 mmHg 54%
    13:00 +25°C° 0.1 mm 2 m/s 751 mmHg 52%
    14:00 +25°C° 0 mm 1 m/s 750 mmHg 52%
    15:00 +25°C° 0 mm 1 m/s 750 mmHg 53%
    16:00 +25°C° 0 mm 1 m/s 750 mmHg 54%
    17:00 +23°C° 0 mm 1 m/s 750 mmHg 60%
    18:00 +22°C° 0 mm 1 m/s 750 mmHg 67%
    19:00 +21°C° 0 mm 1 m/s 750 mmHg 73%
    20:00 +19°C° 0 mm 2 m/s 751 mmHg 76%
    21:00 +17°C° 0 mm 2 m/s 751 mmHg 79%
    22:00 +16°C° 0 mm 2 m/s 751 mmHg 82%
    23:00 +16°C° 0 mm 2 m/s 751 mmHg 83%

    20 Julho, Sábado

    Tempo Temperatura Precipitação Vento Pressão Humidade
    00:00 +15°C° 0 mm 2 m/s 751 mmHg 84%
    01:00 +15°C° 0 mm 2 m/s 751 mmHg 85%
    02:00 +15°C° 0 mm 2 m/s 751 mmHg 86%
    03:00 +14°C° 0 mm 1 m/s 751 mmHg 86%
    04:00 +14°C° 0 mm 1 m/s 751 mmHg 87%
    05:00 +16°C° 0 mm 1 m/s 751 mmHg 81%
    06:00 +19°C° 0 mm 1 m/s 752 mmHg 76%
    07:00 +21°C° 0 mm 1 m/s 752 mmHg 70%
    08:00 +22°C° 0 mm 1 m/s 752 mmHg 65%
    09:00 +24°C° 0 mm 1 m/s 752 mmHg 60%
    10:00 +25°C° 0 mm 1 m/s 752 mmHg 55%
    11:00 +26°C° 0 mm 1 m/s 752 mmHg 52%
    12:00 +27°C° 0 mm 1 m/s 752 mmHg 50%
    13:00 +27°C° 0 mm 1 m/s 752 mmHg 47%
    14:00 +27°C° 0 mm 1 m/s 752 mmHg 49%
    15:00 +27°C° 0 mm 1 m/s 752 mmHg 51%
    16:00 +27°C° 0 mm 1 m/s 752 mmHg 53%
    17:00 +25°C° 0 mm 1 m/s 752 mmHg 60%
    18:00 +24°C° 0 mm 2 m/s 752 mmHg 67%
    19:00 +22°C° 0 mm 3 m/s 752 mmHg 75%
    20:00 +20°C° 0 mm 3 m/s 752 mmHg 76%
    21:00 +19°C° 0 mm 3 m/s 752 mmHg 77%
    22:00 +18°C° 0 mm 3 m/s 752 mmHg 78%
    23:00 +18°C° 0 mm 3 m/s 752 mmHg 77%

    21 Julho, Domingo

    Tempo Temperatura Precipitação Vento Pressão Humidade
    00:00 +17°C° 0 mm 3 m/s 752 mmHg 77%
    01:00 +17°C° 0 mm 3 m/s 752 mmHg 76%
    02:00 +17°C° 0 mm 3 m/s 752 mmHg 77%
    03:00 +17°C° 0 mm 3 m/s 752 mmHg 77%
    04:00 +17°C° 0 mm 3 m/s 752 mmHg 77%
    05:00 +18°C° 0 mm 3 m/s 752 mmHg 75%
    06:00 +20°C° 0 mm 3 m/s 752 mmHg 73%
    07:00 +21°C° 0 mm 4 m/s 752 mmHg 71%
    08:00 +22°C° 0.6 mm 3 m/s 752 mmHg 73%
    09:00 +24°C° 0.6 mm 3 m/s 752 mmHg 74%
    10:00 +24°C° 0.6 mm 2 m/s 752 mmHg 76%
    11:00 +24°C° 1 mm 2 m/s 752 mmHg 79%
    12:00 +24°C° 1 mm 2 m/s 752 mmHg 81%
    13:00 +23°C° 1 mm 2 m/s 751 mmHg 84%
    14:00 +23°C° 1 mm 2 m/s 751 mmHg 83%
    15:00 +22°C° 1 mm 3 m/s 751 mmHg 82%
    16:00 +23°C° 1 mm 4 m/s 751 mmHg 81%
    17:00 +22°C° 0.9 mm 3 m/s 751 mmHg 85%
    18:00 +21°C° 0.9 mm 3 m/s 751 mmHg 88%
    19:00 +20°C° 0.9 mm 2 m/s 751 mmHg 92%
    20:00 +19°C° 0.4 mm 2 m/s 752 mmHg 92%
    21:00 +20°C° 0.4 mm 1 m/s 752 mmHg 93%
    22:00 +19°C° 0.4 mm 1 m/s 752 mmHg 94%
    23:00 +19°C° 0.1 mm 1 m/s 752 mmHg 95%

    22 Julho, Segunda-feira

    Tempo Temperatura Precipitação Vento Pressão Humidade
    00:00 +18°C° 0.1 mm 1 m/s 752 mmHg 96%
    01:00 +17°C° 0.1 mm 2 m/s 752 mmHg 96%
    02:00 +17°C° 0 mm 2 m/s 753 mmHg 97%
    03:00 +17°C° 0 mm 2 m/s 753 mmHg 97%
    04:00 +16°C° 0 mm 2 m/s 753 mmHg 97%
    05:00 +17°C° 0 mm 3 m/s 753 mmHg 95%
    06:00 +19°C° 0 mm 3 m/s 753 mmHg 93%
    07:00 +20°C° 0 mm 3 m/s 754 mmHg 91%
    08:00 +21°C° 0 mm 3 m/s 754 mmHg 84%
    09:00 +22°C° 0 mm 3 m/s 754 mmHg 78%
    10:00 +24°C° 0 mm 3 m/s 754 mmHg 72%
    11:00 +23°C° 0.2 mm 4 m/s 754 mmHg 71%
    12:00 +25°C° 0.2 mm 5 m/s 755 mmHg 70%
    13:00 +25°C° 0.2 mm 5 m/s 755 mmHg 69%
    14:00 +25°C° 0.1 mm 5 m/s 755 mmHg 70%
    15:00 +23°C° 0.1 mm 5 m/s 755 mmHg 70%
    16:00 +23°C° 0.1 mm 5 m/s 755 mmHg 71%
    17:00 +22°C° 0 mm 4 m/s 755 mmHg 77%
    18:00 +20°C° 0 mm 4 m/s 755 mmHg 82%
    19:00 +19°C° 0 mm 3 m/s 755 mmHg 88%
    20:00 +18°C° 0 mm 3 m/s 755 mmHg 91%
    21:00 +17°C° 0 mm 2 m/s 755 mmHg 94%
    22:00 +16°C° 0 mm 2 m/s 755 mmHg 97%
    23:00 +16°C° 0 mm 2 m/s 755 mmHg 97%
    Mostrar mais